01.01.2019 00:15;178074
01.01.2019 00:30;175329
01.01.2019 00:45;172892
01.01.2019 01:00;170920
01.01.2019 01:15;167947
01.01.2019 01:30;165285
01.01.2019 01:45;161452
01.01.2019 02:00;160262
01.01.2019 02:15;161111
01.01.2019 02:30;161814
01.01.2019 02:45;161203
01.01.2019 03:00;161916
01.01.2019 03:15;169784
01.01.2019 03:30;167218
01.01.2019 03:45;166618
01.01.2019 04:00;170320
01.01.2019 04:15;172952
01.01.2019 04:30;169760
01.01.2019 04:45;170362
01.01.2019 05:00;171929
01.01.2019 05:15;178028
01.01.2019 05:30;172821
01.01.2019 05:45;165817
01.01.2019 06:00;165614
01.01.2019 06:15;181456
01.01.2019 06:30;193216
01.01.2019 06:45;195906
01.01.2019 07:00;198930
01.01.2019 07:15;197224
01.01.2019 07:30;203287
01.01.2019 07:45;234521
01.01.2019 08:00;244099
01.01.2019 08:15;225288
01.01.2019 08:30;200567
01.01.2019 08:45;188691
01.01.2019 09:00;195833
01.01.2019 09:15;204015
01.01.2019 09:30;221124
01.01.2019 09:45;229633
01.01.2019 10:00;235266
01.01.2019 10:15;241473
01.01.2019 10:30;243425
01.01.2019 10:45;255992
01.01.2019 11:00;273799
01.01.2019 11:15;277472
01.01.2019 11:30;282328
01.01.2019 11:45;296904
01.01.2019 12:00;296869
01.01.2019 12:15;285664
01.01.2019 12:30;271740
01.01.2019 12:45;263439
01.01.2019 13:00;263533
01.01.2019 13:15;267061
01.01.2019 13:30;274018
01.01.2019 13:45;260494
01.01.2019 14:00;253663
01.01.2019 14:15;259473
01.01.2019 14:30;261526
01.01.2019 14:45;271325
01.01.2019 15:00;282494
01.01.2019 15:15;287875
01.01.2019 15:30;290032
01.01.2019 15:45;281735
01.01.2019 16:00;285681
01.01.2019 16:15;295776
01.01.2019 16:30;301049
01.01.2019 16:45;313319
01.01.2019 17:00;323009
01.01.2019 17:15;344144
01.01.2019 17:30;358936
01.01.2019 17:45;367789
01.01.2019 18:00;355664
01.01.2019 18:15;337183
01.01.2019 18:30;324513
01.01.2019 18:45;331285
01.01.2019 19:00;313900
01.01.2019 19:15;321881
01.01.2019 19:30;334176
01.01.2019 19:45;356605
01.01.2019 20:00;360368
01.01.2019 20:15;354236
01.01.2019 20:30;329677
01.01.2019 20:45;315965
01.01.2019 21:00;337794
01.01.2019 21:15;343796
01.01.2019 21:30;339775
01.01.2019 21:45;326333
01.01.2019 22:00;305352
01.01.2019 22:15;324315
01.01.2019 22:30;347249
01.01.2019 22:45;335453
01.01.2019 23:00;333363
01.01.2019 23:15;337742
01.01.2019 23:30;340171
01.01.2019 23:45;329732
02.01.2019 00:00;331401
02.01.2019 00:15;317775
02.01.2019 00:30;309612
02.01.2019 00:45;291209
02.01.2019 01:00;288423
02.01.2019 01:15;284426
02.01.2019 01:30;271267
02.01.2019 01:45;261593
02.01.2019 02:00;268030
02.01.2019 02:15;283576
02.01.2019 02:30;303211
02.01.2019 02:45;308680
02.01.2019 03:00;276197
02.01.2019 03:15;268074
02.01.2019 03:30;270871
02.01.2019 03:45;280596
02.01.2019 04:00;284979
02.01.2019 04:15;295823
02.01.2019 04:30;303410
02.01.2019 04:45;302117
02.01.2019 05:00;311830
02.01.2019 05:15;316834
02.01.2019 05:30;313428
02.01.2019 05:45;317833
02.01.2019 06:00;314638
02.01.2019 06:15;325725
02.01.2019 06:30;329407
02.01.2019 06:45;337752
02.01.2019 07:00;340964
02.01.2019 07:15;344733
02.01.2019 07:30;348951
02.01.2019 07:45;366252
02.01.2019 08:00;375340
02.01.2019 08:15;388614
02.01.2019 08:30;389109
02.01.2019 08:45;375174
02.01.2019 09:00;363937
02.01.2019 09:15;370548
02.01.2019 09:30;374583
02.01.2019 09:45;377560
02.01.2019 10:00;388884
02.01.2019 10:15;407495
02.01.2019 10:30;407501
02.01.2019 10:45;392443
02.01.2019 11:00;394569
02.01.2019 11:15;378893
02.01.2019 11:30;374458
02.01.2019 11:45;376722
02.01.2019 12:00;377971
02.01.2019 12:15;387650
02.01.2019 12:30;400761
02.01.2019 12:45;386683
02.01.2019 13:00;365400
02.01.2019 13:15;345838
02.01.2019 13:30;343417
02.01.2019 13:45;324363
02.01.2019 14:00;323840
02.01.2019 14:15;331352
02.01.2019 14:30;343305
02.01.2019 14:45;347493
02.01.2019 15:00;349232
02.01.2019 15:15;341344
02.01.2019 15:30;344072
02.01.2019 15:45;328978
02.01.2019 16:00;329862
02.01.2019 16:15;333552
02.01.2019 16:30;328446
02.01.2019 16:45;350172
02.01.2019 17:00;343851
02.01.2019 17:15;362806
02.01.2019 17:30;375264
02.01.2019 17:45;366428
02.01.2019 18:00;343650
02.01.2019 18:15;327124
02.01.2019 18:30;331398
02.01.2019 18:45;342806
02.01.2019 19:00;339163
02.01.2019 19:15;324934
02.01.2019 19:30;327273
02.01.2019 19:45;341896
02.01.2019 20:00;347233
02.01.2019 20:15;346921
02.01.2019 20:30;360392
02.01.2019 20:45;353979
02.01.2019 21:00;335327
02.01.2019 21:15;319875
02.01.2019 21:30;310761
02.01.2019 21:45;312092
02.01.2019 22:00;303852
02.01.2019 22:15;290947
02.01.2019 22:30;276548
02.01.2019 22:45;268954
02.01.2019 23:00;258521
02.01.2019 23:15;245773
02.01.2019 23:30;237216
02.01.2019 23:45;230869
03.01.2019 00:00;222104
03.01.2019 00:15;213944
03.01.2019 00:30;209526
03.01.2019 00:45;205978
03.01.2019 01:00;202695
03.01.2019 01:15;200433
03.01.2019 01:30;199296
03.01.2019 01:45;194966
03.01.2019 02:00;193144
03.01.2019 02:15;192028
03.01.2019 02:30;189609
03.01.2019 02:45;188855
03.01.2019 03:00;186368
03.01.2019 03:15;187484
03.01.2019 03:30;185389
03.01.2019 03:45;184110
03.01.2019 04:00;184394
03.01.2019 04:15;183918
03.01.2019 04:30;184964
03.01.2019 04:45;188624
03.01.2019 05:00;189165
03.01.2019 05:15;190364
03.01.2019 05:30;191152
03.01.2019 05:45;194620
03.01.2019 06:00;200414
03.01.2019 06:15;209659
03.01.2019 06:30;224622
03.01.2019 06:45;234968
03.01.2019 07:00;247208
03.01.2019 07:15;253541
03.01.2019 07:30;251481
03.01.2019 07:45;252031
03.01.2019 08:00;255726
03.01.2019 08:15;260167
03.01.2019 08:30;257193
03.01.2019 08:45;257082
03.01.2019 09:00;261605
03.01.2019 09:15;264816
03.01.2019 09:30;271921
03.01.2019 09:45;271688
03.01.2019 10:00;274852
03.01.2019 10:15;279960
03.01.2019 10:30;282669
03.01.2019 10:45;279839
03.01.2019 11:00;275582
03.01.2019 11:15;275119
03.01.2019 11:30;278665
03.01.2019 11:45;281865
03.01.2019 12:00;281602
03.01.2019 12:15;281722
03.01.2019 12:30;279218
03.01.2019 12:45;279049
03.01.2019 13:00;278233
03.01.2019 13:15;279789
03.01.2019 13:30;287220
03.01.2019 13:45;288816
03.01.2019 14:00;290545
03.01.2019 14:15;292986
03.01.2019 14:30;293173
03.01.2019 14:45;286921
03.01.2019 15:00;282101
03.01.2019 15:15;282783
03.01.2019 15:30;284623
03.01.2019 15:45;281471
03.01.2019 16:00;272340
03.01.2019 16:15;272065
03.01.2019 16:30;275321
03.01.2019 16:45;281254
03.01.2019 17:00;286354
03.01.2019 17:15;296370
03.01.2019 17:30;307335
03.01.2019 17:45;311841
03.01.2019 18:00;306127
03.01.2019 18:15;303790
03.01.2019 18:30;302262
03.01.2019 18:45;301966
03.01.2019 19:00;301681
03.01.2019 19:15;304761
03.01.2019 19:30;304330
03.01.2019 19:45;302563
03.01.2019 20:00;291533
03.01.2019 20:15;286438
03.01.2019 20:30;278992
03.01.2019 20:45;273480
03.01.2019 21:00;273661
03.01.2019 21:15;277058
03.01.2019 21:30;272065
03.01.2019 21:45;265470
03.01.2019 22:00;262282
03.01.2019 22:15;267474
03.01.2019 22:30;260974
03.01.2019 22:45;253219
03.01.2019 23:00;244850
03.01.2019 23:15;239237
03.01.2019 23:30;233429
03.01.2019 23:45;227636
04.01.2019 00:00;219671
04.01.2019 00:15;212654
04.01.2019 00:30;207221
04.01.2019 00:45;201935
04.01.2019 01:00;197518
04.01.2019 01:15;194634
04.01.2019 01:30;192166
04.01.2019 01:45;189366
04.01.2019 02:00;188241
04.01.2019 02:15;186774
04.01.2019 02:30;185113
04.01.2019 02:45;184444
04.01.2019 03:00;183643
04.01.2019 03:15;183129
04.01.2019 03:30;183038
04.01.2019 03:45;182294
04.01.2019 04:00;182529
04.01.2019 04:15;184596
04.01.2019 04:30;185814
04.01.2019 04:45;186371
04.01.2019 05:00;189048
04.01.2019 05:15;196117
04.01.2019 05:30;201469
04.01.2019 05:45;206408
04.01.2019 06:00;219341
04.01.2019 06:15;230567
04.01.2019 06:30;236117
04.01.2019 06:45;243967
04.01.2019 07:00;247732
04.01.2019 07:15;256626
04.01.2019 07:30;260369
04.01.2019 07:45;260937
04.01.2019 08:00;267922
04.01.2019 08:15;274748
04.01.2019 08:30;274072
04.01.2019 08:45;276252
04.01.2019 09:00;272030
04.01.2019 09:15;272067
04.01.2019 09:30;279108
04.01.2019 09:45;282092
04.01.2019 10:00;280368
04.01.2019 10:15;279895
04.01.2019 10:30;276960
04.01.2019 10:45;273280
04.01.2019 11:00;279162
04.01.2019 11:15;270480
04.01.2019 11:30;265397
04.01.2019 11:45;264341
04.01.2019 12:00;268430
04.01.2019 12:15;266281
04.01.2019 12:30;264417
04.01.2019 12:45;262610
04.01.2019 13:00;260391
04.01.2019 13:15;263287
04.01.2019 13:30;261378
04.01.2019 13:45;259832
04.01.2019 14:00;256694
04.01.2019 14:15;256473
04.01.2019 14:30;256817
04.01.2019 14:45;256880
04.01.2019 15:00;257777
04.01.2019 15:15;259106
04.01.2019 15:30;261037
04.01.2019 15:45;264451
04.01.2019 16:00;270814
04.01.2019 16:15;275409
04.01.2019 16:30;283192
04.01.2019 16:45;292135
04.01.2019 17:00;300618
04.01.2019 17:15;307939
04.01.2019 17:30;317863
04.01.2019 17:45;314218
04.01.2019 18:00;300854
04.01.2019 18:15;297321
04.01.2019 18:30;292220
04.01.2019 18:45;295323
04.01.2019 19:00;297943
04.01.2019 19:15;296885
04.01.2019 19:30;291946
04.01.2019 19:45;291898
04.01.2019 20:00;294271
04.01.2019 20:15;286061
04.01.2019 20:30;293026
04.01.2019 20:45;286122
04.01.2019 21:00;284632
04.01.2019 21:15;284732
04.01.2019 21:30;264419
04.01.2019 21:45;269338
04.01.2019 22:00;261859
04.01.2019 22:15;265673
04.01.2019 22:30;255992
04.01.2019 22:45;249523
04.01.2019 23:00;247104
04.01.2019 23:15;248139
04.01.2019 23:30;255037
04.01.2019 23:45;258506
05.01.2019 00:00;265376
05.01.2019 00:15;272264
05.01.2019 00:30;272489
05.01.2019 00:45;265188
05.01.2019 01:00;263360
05.01.2019 01:15;259161
05.01.2019 01:30;262020
05.01.2019 01:45;260270
05.01.2019 02:00;268810
05.01.2019 02:15;283514
05.01.2019 02:30;275316
05.01.2019 02:45;257307
05.01.2019 03:00;255337
05.01.2019 03:15;260458
05.01.2019 03:30;251912
05.01.2019 03:45;248361
05.01.2019 04:00;252960
05.01.2019 04:15;260816
05.01.2019 04:30;284950
05.01.2019 04:45;305111
05.01.2019 05:00;311157
05.01.2019 05:15;315360
05.01.2019 05:30;316744
05.01.2019 05:45;322434
05.01.2019 06:00;327851
05.01.2019 06:15;345835
05.01.2019 06:30;353024
05.01.2019 06:45;344937
05.01.2019 07:00;349256
05.01.2019 07:15;350349
05.01.2019 07:30;354342
05.01.2019 07:45;353284
05.01.2019 08:00;359271
05.01.2019 08:15;377549
05.01.2019 08:30;376610
05.01.2019 08:45;370579
05.01.2019 09:00;370694
05.01.2019 09:15;381544
05.01.2019 09:30;381073
05.01.2019 09:45;387981
05.01.2019 10:00;391995
05.01.2019 10:15;387411
05.01.2019 10:30;383332
05.01.2019 10:45;379902
05.01.2019 11:00;377806
05.01.2019 11:15;370528
05.01.2019 11:30;364344
05.01.2019 11:45;356725
05.01.2019 12:00;350351
05.01.2019 12:15;340797
05.01.2019 12:30;338225
05.01.2019 12:45;327785
05.01.2019 13:00;321150
05.01.2019 13:15;338015
05.01.2019 13:30;360202
05.01.2019 13:45;383942
05.01.2019 14:00;400504
05.01.2019 14:15;410894
05.01.2019 14:30;407288
05.01.2019 14:45;407788
05.01.2019 15:00;403096
05.01.2019 15:15;392736
05.01.2019 15:30;389321
05.01.2019 15:45;385075
05.01.2019 16:00;379523
05.01.2019 16:15;377216
05.01.2019 16:30;370942
05.01.2019 16:45;365584
05.01.2019 17:00;363575
05.01.2019 17:15;380975
05.01.2019 17:30;392151
05.01.2019 17:45;406838
05.01.2019 18:00;411641
05.01.2019 18:15;413850
05.01.2019 18:30;409522
05.01.2019 18:45;398737
05.01.2019 19:00;385797
05.01.2019 19:15;376773
05.01.2019 19:30;370994
05.01.2019 19:45;374669
05.01.2019 20:00;374957
05.01.2019 20:15;376044
05.01.2019 20:30;377496
05.01.2019 20:45;378301
05.01.2019 21:00;377032
05.01.2019 21:15;367617
05.01.2019 21:30;358513
05.01.2019 21:45;349248
05.01.2019 22:00;335609
05.01.2019 22:15;325089
05.01.2019 22:30;320057
05.01.2019 22:45;322483
05.01.2019 23:00;325746
05.01.2019 23:15;325393
05.01.2019 23:30;320221
05.01.2019 23:45;316613
06.01.2019 00:00;314492
06.01.2019 00:15;303403
06.01.2019 00:30;300083
06.01.2019 00:45;308457
06.01.2019 01:00;294244
06.01.2019 01:15;284595
06.01.2019 01:30;283146
06.01.2019 01:45;285659
06.01.2019 02:00;284163
06.01.2019 02:15;287421
06.01.2019 02:30;280257
06.01.2019 02:45;275750
06.01.2019 03:00;284481
06.01.2019 03:15;294645
06.01.2019 03:30;308084
06.01.2019 03:45;308374
06.01.2019 04:00;315705
06.01.2019 04:15;319502
06.01.2019 04:30;317014
06.01.2019 04:45;309852
06.01.2019 05:00;301976
06.01.2019 05:15;309899
06.01.2019 05:30;305397
06.01.2019 05:45;293002
06.01.2019 06:00;283075
06.01.2019 06:15;274190
06.01.2019 06:30;267613
06.01.2019 06:45;265370
06.01.2019 07:00;242385
06.01.2019 07:15;235990
06.01.2019 07:30;244694
06.01.2019 07:45;259065
06.01.2019 08:00;279001
06.01.2019 08:15;282391
06.01.2019 08:30;283776
06.01.2019 08:45;282667
06.01.2019 09:00;274478
06.01.2019 09:15;276722
06.01.2019 09:30;279291
06.01.2019 09:45;279576
06.01.2019 10:00;290620
06.01.2019 10:15;309188
06.01.2019 10:30;307101
06.01.2019 10:45;299953
06.01.2019 11:00;297727
06.01.2019 11:15;290937
06.01.2019 11:30;299836
06.01.2019 11:45;302286
06.01.2019 12:00;300849
06.01.2019 12:15;298947
06.01.2019 12:30;295474
06.01.2019 12:45;287333
06.01.2019 13:00;277817
06.01.2019 13:15;267782
06.01.2019 13:30;251984
06.01.2019 13:45;246829
06.01.2019 14:00;250207
06.01.2019 14:15;247617
06.01.2019 14:30;246999
06.01.2019 14:45;243391
06.01.2019 15:00;241635
06.01.2019 15:15;241559
06.01.2019 15:30;236611
06.01.2019 15:45;230535
06.01.2019 16:00;233385
06.01.2019 16:15;240383
06.01.2019 16:30;245157
06.01.2019 16:45;248369
06.01.2019 17:00;258498
06.01.2019 17:15;267542
06.01.2019 17:30;273802
06.01.2019 17:45;278460
06.01.2019 18:00;280461
06.01.2019 18:15;284510
06.01.2019 18:30;283060
06.01.2019 18:45;275355
06.01.2019 19:00;269380
06.01.2019 19:15;266275
06.01.2019 19:30;261308
06.01.2019 19:45;258802
06.01.2019 20:00;251578
06.01.2019 20:15;251115
06.01.2019 20:30;248785
06.01.2019 20:45;250186
06.01.2019 21:00;250232
06.01.2019 21:15;247368
06.01.2019 21:30;242018
06.01.2019 21:45;234960
06.01.2019 22:00;232021
06.01.2019 22:15;238484
06.01.2019 22:30;237646
06.01.2019 22:45;232388
06.01.2019 23:00;224725
06.01.2019 23:15;215783
06.01.2019 23:30;209794
06.01.2019 23:45;201186
07.01.2019 00:00;198024
07.01.2019 00:15;193495
07.01.2019 00:30;188575
07.01.2019 00:45;186324
07.01.2019 01:00;183916
07.01.2019 01:15;182618
07.01.2019 01:30;177748
07.01.2019 01:45;176918
07.01.2019 02:00;176068
07.01.2019 02:15;171291
07.01.2019 02:30;173722
07.01.2019 02:45;170255
07.01.2019 03:00;168983
07.01.2019 03:15;174489
07.01.2019 03:30;172805
07.01.2019 03:45;172558
07.01.2019 04:00;171572
07.01.2019 04:15;174632
07.01.2019 04:30;176374
07.01.2019 04:45;181119
07.01.2019 05:00;185239
07.01.2019 05:15;194907
07.01.2019 05:30;197641
07.01.2019 05:45;202215
07.01.2019 06:00;207820
07.01.2019 06:15;214365
07.01.2019 06:30;224651
07.01.2019 06:45;230784
07.01.2019 07:00;236465
07.01.2019 07:15;244848
07.01.2019 07:30;249122
07.01.2019 07:45;254241
07.01.2019 08:00;261382
07.01.2019 08:15;267542
07.01.2019 08:30;272885
07.01.2019 08:45;271719
07.01.2019 09:00;270675
07.01.2019 09:15;269510
07.01.2019 09:30;270525
07.01.2019 09:45;268832
07.01.2019 10:00;270505
07.01.2019 10:15;270448
07.01.2019 10:30;269344
07.01.2019 10:45;270767
07.01.2019 11:00;273770
07.01.2019 11:15;275727
07.01.2019 11:30;275766
07.01.2019 11:45;275691
07.01.2019 12:00;276283
07.01.2019 12:15;274725
07.01.2019 12:30;271769
07.01.2019 12:45;271085
07.01.2019 13:00;270044
07.01.2019 13:15;267668
07.01.2019 13:30;265553
07.01.2019 13:45;263274
07.01.2019 14:00;263522
07.01.2019 14:15;263694
07.01.2019 14:30;265110
07.01.2019 14:45;266343
07.01.2019 15:00;265567
07.01.2019 15:15;267298
07.01.2019 15:30;263988
07.01.2019 15:45;266249
07.01.2019 16:00;269783
07.01.2019 16:15;273502
07.01.2019 16:30;274713
07.01.2019 16:45;277291
07.01.2019 17:00;283022
07.01.2019 17:15;290460
07.01.2019 17:30;296237
07.01.2019 17:45;303833
07.01.2019 18:00;307246
07.01.2019 18:15;303724
07.01.2019 18:30;303786
07.01.2019 18:45;298588
07.01.2019 19:00;295882
07.01.2019 19:15;299214
07.01.2019 19:30;304418
07.01.2019 19:45;309403
07.01.2019 20:00;318446
07.01.2019 20:15;330843
07.01.2019 20:30;333534
07.01.2019 20:45;334676
07.01.2019 21:00;339309
07.01.2019 21:15;336977
07.01.2019 21:30;332687
07.01.2019 21:45;336823
07.01.2019 22:00;351191
07.01.2019 22:15;356464
07.01.2019 22:30;354989
07.01.2019 22:45;354194
07.01.2019 23:00;354932
07.01.2019 23:15;353040
07.01.2019 23:30;358603
07.01.2019 23:45;355127
08.01.2019 00:00;348292
08.01.2019 00:15;339714
08.01.2019 00:30;339117
08.01.2019 00:45;359715
08.01.2019 01:00;358956
08.01.2019 01:15;341731
08.01.2019 01:30;324040
08.01.2019 01:45;347046
08.01.2019 02:00;362182
08.01.2019 02:15;360686
08.01.2019 02:30;363360
08.01.2019 02:45;365029
08.01.2019 03:00;366650
08.01.2019 03:15;366823
08.01.2019 03:30;366136
08.01.2019 03:45;366488
08.01.2019 04:00;357256
08.01.2019 04:15;347858
08.01.2019 04:30;350344
08.01.2019 04:45;357622
08.01.2019 05:00;360800
08.01.2019 05:15;348779
08.01.2019 05:30;338902
08.01.2019 05:45;303990
08.01.2019 06:00;273097
08.01.2019 06:15;271553
08.01.2019 06:30;308152
08.01.2019 06:45;324881
08.01.2019 07:00;327281
08.01.2019 07:15;318781
08.01.2019 07:30;339563
08.01.2019 07:45;343322
08.01.2019 08:00;363524
08.01.2019 08:15;372257
08.01.2019 08:30;395493
08.01.2019 08:45;410638
08.01.2019 09:00;414983
08.01.2019 09:15;418579
08.01.2019 09:30;419422
08.01.2019 09:45;417766
08.01.2019 10:00;421815
08.01.2019 10:15;425135
08.01.2019 10:30;429027
08.01.2019 10:45;429646
08.01.2019 11:00;433134
08.01.2019 11:15;437505
08.01.2019 11:30;437436
08.01.2019 11:45;441452
08.01.2019 12:00;441833
08.01.2019 12:15;437808
08.01.2019 12:30;443058
08.01.2019 12:45;435705
08.01.2019 13:00;431811
08.01.2019 13:15;426322
08.01.2019 13:30;408529
08.01.2019 13:45;408657
08.01.2019 14:00;416799
08.01.2019 14:15;420970
08.01.2019 14:30;425082
08.01.2019 14:45;435255
08.01.2019 15:00;433234
08.01.2019 15:15;425250
08.01.2019 15:30;429394
08.01.2019 15:45;433297
08.01.2019 16:00;430581
08.01.2019 16:15;417829
08.01.2019 16:30;416662
08.01.2019 16:45;416753
08.01.2019 17:00;424122
08.01.2019 17:15;417193
08.01.2019 17:30;431064
08.01.2019 17:45;439286
08.01.2019 18:00;439143
08.01.2019 18:15;449100
08.01.2019 18:30;456509
08.01.2019 18:45;457139
08.01.2019 19:00;443375
08.01.2019 19:15;437297
08.01.2019 19:30;429100
08.01.2019 19:45;432584
08.01.2019 20:00;439033
08.01.2019 20:15;434388
08.01.2019 20:30;431558
08.01.2019 20:45;427504
08.01.2019 21:00;428341
08.01.2019 21:15;424288
08.01.2019 21:30;420310
08.01.2019 21:45;417263
08.01.2019 22:00;415512
08.01.2019 22:15;390466
08.01.2019 22:30;393350
08.01.2019 22:45;397418
08.01.2019 23:00;386760
08.01.2019 23:15;362689
08.01.2019 23:30;358433
08.01.2019 23:45;354984
09.01.2019 00:00;354235
09.01.2019 00:15;356467
09.01.2019 00:30;350776
09.01.2019 00:45;351509
09.01.2019 01:00;345799
09.01.2019 01:15;330668
09.01.2019 01:30;333521
09.01.2019 01:45;317117
09.01.2019 02:00;325144
09.01.2019 02:15;333684
09.01.2019 02:30;328667
09.01.2019 02:45;330535
09.01.2019 03:00;322297
09.01.2019 03:15;296440
09.01.2019 03:30;308860
09.01.2019 03:45;321213
09.01.2019 04:00;325444
09.01.2019 04:15;331293
09.01.2019 04:30;336239
09.01.2019 04:45;346456
09.01.2019 05:00;345564
09.01.2019 05:15;336135
09.01.2019 05:30;336165
09.01.2019 05:45;355839
09.01.2019 06:00;365759
09.01.2019 06:15;380947
09.01.2019 06:30;372901
09.01.2019 06:45;386356
09.01.2019 07:00;398103
09.01.2019 07:15;405249
09.01.2019 07:30;407501
09.01.2019 07:45;412680
09.01.2019 08:00;404111
09.01.2019 08:15;401191
09.01.2019 08:30;405386
09.01.2019 08:45;391481
09.01.2019 09:00;376838
09.01.2019 09:15;369826
09.01.2019 09:30;371685
09.01.2019 09:45;367605
09.01.2019 10:00;378200
09.01.2019 10:15;406215
09.01.2019 10:30;420298
09.01.2019 10:45;402059
09.01.2019 11:00;404401
09.01.2019 11:15;407262
09.01.2019 11:30;399221
09.01.2019 11:45;375062
09.01.2019 12:00;388291
09.01.2019 12:15;399505
09.01.2019 12:30;401816
09.01.2019 12:45;389255
09.01.2019 13:00;386704
09.01.2019 13:15;419912
09.01.2019 13:30;434998
09.01.2019 13:45;435448
09.01.2019 14:00;418708
09.01.2019 14:15;399642
09.01.2019 14:30;377532
09.01.2019 14:45;357798
09.01.2019 15:00;343861
09.01.2019 15:15;356630
09.01.2019 15:30;352767
09.01.2019 15:45;345911
09.01.2019 16:00;358255
09.01.2019 16:15;365319
09.01.2019 16:30;384409
09.01.2019 16:45;390784
09.01.2019 17:00;387863
09.01.2019 17:15;393080
09.01.2019 17:30;386711
09.01.2019 17:45;360621
09.01.2019 18:00;349817
09.01.2019 18:15;358266
09.01.2019 18:30;377656
09.01.2019 18:45;398235
09.01.2019 19:00;412490
09.01.2019 19:15;403609
09.01.2019 19:30;380517
09.01.2019 19:45;356178
09.01.2019 20:00;339881
09.01.2019 20:15;335044
09.01.2019 20:30;330016
09.01.2019 20:45;330637
09.01.2019 21:00;325183
09.01.2019 21:15;328147
09.01.2019 21:30;317053
09.01.2019 21:45;314788
09.01.2019 22:00;317089
09.01.2019 22:15;315366
09.01.2019 22:30;303981
09.01.2019 22:45;300732
09.01.2019 23:00;296709
09.01.2019 23:15;288382
09.01.2019 23:30;286804
09.01.2019 23:45;276965
10.01.2019 00:00;276788
10.01.2019 00:15;277880
10.01.2019 00:30;276035
10.01.2019 00:45;268372
10.01.2019 01:00;249316
10.01.2019 01:15;234701
10.01.2019 01:30;229165
10.01.2019 01:45;230677
10.01.2019 02:00;237686
10.01.2019 02:15;234502
10.01.2019 02:30;224410
10.01.2019 02:45;216932
10.01.2019 03:00;212952
10.01.2019 03:15;212383
10.01.2019 03:30;215298
10.01.2019 03:45;217784
10.01.2019 04:00;222616
10.01.2019 04:15;223606
10.01.2019 04:30;221311
10.01.2019 04:45;218753
10.01.2019 05:00;216471
10.01.2019 05:15;225164
10.01.2019 05:30;228788
10.01.2019 05:45;229010
10.01.2019 06:00;225855
10.01.2019 06:15;234976
10.01.2019 06:30;241630
10.01.2019 06:45;247780
10.01.2019 07:00;253515
10.01.2019 07:15;259050
10.01.2019 07:30;263213
10.01.2019 07:45;265976
10.01.2019 08:00;270480
10.01.2019 08:15;275691
10.01.2019 08:30;275223
10.01.2019 08:45;275020
10.01.2019 09:00;278364
10.01.2019 09:15;277919
10.01.2019 09:30;278988
10.01.2019 09:45;277346
10.01.2019 10:00;275442
10.01.2019 10:15;276348
10.01.2019 10:30;276083
10.01.2019 10:45;275227
10.01.2019 11:00;274375
10.01.2019 11:15;277604
10.01.2019 11:30;279219
10.01.2019 11:45;280849
10.01.2019 12:00;281473
10.01.2019 12:15;281535
10.01.2019 12:30;281364
10.01.2019 12:45;283279
10.01.2019 13:00;280710
10.01.2019 13:15;280988
10.01.2019 13:30;282372
10.01.2019 13:45;281711
10.01.2019 14:00;279686
10.01.2019 14:15;277398
10.01.2019 14:30;276462
10.01.2019 14:45;277561
10.01.2019 15:00;277520
10.01.2019 15:15;273200
10.01.2019 15:30;270904
10.01.2019 15:45;269754
10.01.2019 16:00;269514
10.01.2019 16:15;271231
10.01.2019 16:30;274433
10.01.2019 16:45;279137
10.01.2019 17:00;281732
10.01.2019 17:15;290283
10.01.2019 17:30;296626
10.01.2019 17:45;300619
10.01.2019 18:00;302531
10.01.2019 18:15;302700
10.01.2019 18:30;301205
10.01.2019 18:45;299655
10.01.2019 19:00;299182
10.01.2019 19:15;297658
10.01.2019 19:30;295582
10.01.2019 19:45;292033
10.01.2019 20:00;287909
10.01.2019 20:15;282223
10.01.2019 20:30;276761
10.01.2019 20:45;271322
10.01.2019 21:00;264946
10.01.2019 21:15;259354
10.01.2019 21:30;253446
10.01.2019 21:45;256480
10.01.2019 22:00;258769
10.01.2019 22:15;267195
10.01.2019 22:30;263103
10.01.2019 22:45;256459
10.01.2019 23:00;249979
10.01.2019 23:15;241890
10.01.2019 23:30;236851
10.01.2019 23:45;231926
11.01.2019 00:00;227151